This is the latest recevied weather packets stored in our database for station/object N4QD-13. If no packets are shown the sender has not sent any weather packets the latest 10 day(s).
| Time | Temp. | Humidity | Pressure | Rain* | Wind** | Luminosity | Snow |
|---|---|---|---|---|---|---|---|
| 1777202279 | 8.33° C | 99% | 1017.5 hPa | 0 mm | - | 25 W/m² | - |
| 1777201975 | 8.33° C | 99% | 1017.5 hPa | 0 mm | - | 22 W/m² | - |
| 1777201671 | 8.33° C | 99% | 1017.4 hPa | 0 mm | - | 13 W/m² | - |
| 1777201367 | 8.33° C | 99% | 1017.5 hPa | 0 mm | - | 9 W/m² | - |
| 1777201063 | 8.33° C | 99% | 1017.2 hPa | 0 mm | - | 7 W/m² | - |
| 1777200760 | 8.33° C | 99% | 1017.2 hPa | 0 mm | - | 6 W/m² | - |
| 1777200459 | 8.33° C | 99% | 1017.1 hPa | 0 mm | - | 4 W/m² | - |
| 1777200156 | 8.33° C | 99% | 1017.1 hPa | 0 mm | - | 3 W/m² | - |
| 1777199853 | 8.33° C | 99% | 1017.3 hPa | 0 mm | - | 2 W/m² | - |
| 1777199547 | 8.33° C | 99% | 1016.9 hPa | 0 mm | - | 0 W/m² | - |
| 1777199246 | 8.33° C | 99% | 1017 hPa | 0 mm | - | 0 W/m² | - |
| 1777198941 | 8.33° C | 99% | 1016.8 hPa | 0 mm | - | 0 W/m² | - |
| 1777198637 | 8.33° C | 99% | 1016.8 hPa | 0 mm | - | 0 W/m² | - |
| 1777198336 | 8.33° C | 99% | 1016.8 hPa | 0 mm | - | 0 W/m² | - |
| 1777198032 | 8.33° C | 99% | 1016.8 hPa | 0 mm | - | 0 W/m² | - |
| 1777197728 | 8.33° C | 99% | 1016.6 hPa | 0 mm | - | 0 W/m² | - |
| 1777197422 | 8.33° C | 99% | 1016.5 hPa | 0 mm | - | 0 W/m² | - |
| 1777197121 | 8.33° C | 99% | 1016.5 hPa | 0 mm | - | 0 W/m² | - |
| 1777196815 | 8.33° C | 99% | 1016.3 hPa | 0 mm | - | 0 W/m² | - |
| 1777196511 | 8.33° C | 99% | 1016.3 hPa | 0 mm | - | 0 W/m² | - |
| 1777196209 | 8.33° C | 99% | 1016.1 hPa | 0 mm | - | 0 W/m² | - |
| 1777195906 | 8.33° C | 99% | 1015.9 hPa | 0 mm | - | 0 W/m² | - |
| 1777195605 | 8.33° C | 99% | 1015.8 hPa | 0 mm | - | 0 W/m² | - |
| 1777195301 | 8.33° C | 99% | 1015.7 hPa | 0 mm | - | 0 W/m² | - |
| 1777194998 | 8.33° C | 99% | 1015.8 hPa | 0 mm | - | 0 W/m² | - |
* Rain latest hour (hover to see other rain measurements)
** Current wind speed in m/s (hover to see current wind gust speed)